Location: Kawakawa
(35.3830°S, 174.0670°E)
Time: 16:23:21
(UTC+12:00)

ASTRO E2 - Pass Details

Date: 15 August 2020
Orbit: 510 x 516 km, 31.4° (Epoch: 25 September)

Event Time Altitude Azimuth Distance (km) Brightness Sun altitude
Rises 18:09:54 0° 307° (NW) 2,623 7.8 -4.3°
Reaches altitude 10° 18:12:21 10° 319° (NW) 1,741 6.3 -4.8°
Maximum altitude 18:15:46 27° 17° (NNE) 1,021 4.2 -5.5°
Drops below altitude 10° 18:19:12 10° 76° (ENE) 1,749 4.8 -6.2°
Enters shadow 18:20:06 - 81° (E) 2,058 5.2 -6.4°
